Location: Unspecified
(0.0000°N, 0.0000°E)
Time: 16:04:24
(UTC+00:00)

CZ-4 DEB - Pass Details

Date: 24 June 2024
Orbit: 785 x 976 km, 99.1° (Epoch: 18 July)

Event Time Altitude Azimuth Distance (km) Brightness Sun altitude
Exits shadow 20:54:35 28° 257° (WSW) 1,714 ? -38.7°
Drops below altitude 10° 20:59:43 10° 314° (NW) 2,715 ? -39.8°
Sets 21:02:33 0° 325° (NW) 3,662 ? -40.4°
